QPF
0.01 0.01 0.01 0.01 0.01 0.00 0.00 0.00 0.00 0.01 0.01 0.01 0.02 0.03 0.02 0.02 0.03 0.03 0.04 0.05 0.04 0.03 0.03 0.02 0.03 0.03 0.03 0.03 0.04 0.03 0.03 0.03 0.03 0.02 0.02 0.02 0.02 0.01 0.01 0.02 0.02 0.02 0.02 0.01
0.00 0.00 0.00 0.01 0.01 0.01 0.01 0.01 0.01 0.01 0.01 0.01 0.02 0.02 0.02 0.02 0.03 0.04 0.03 0.02 0.02 0.01 0.01 0.01 0.01 0.01 0.01 0.01 0.01 0.02 0.02 0.02 0.02 0.02 0.02 0.02 0.02 0.01 0.01 0.01 0.01 0.01 0.02 0.01
0.00 0.00 0.00 0.00 0.01 0.01 0.01 0.00 0.00 0.01 0.01 0.01 0.01 0.01 0.01 0.02 0.01 0.01 0.01 0.01 0.01 0.01 0.01 0.00 0.00 0.00 0.00 0.00 0.00 0.01 0.02 0.02 0.02 0.02 0.02 0.02 0.02 0.01 0.01 0.02 0.02 0.01 0.02 0.01
0.00 0.00 0.01 0.01 0.01 0.01 0.01 0.01 0.01 0.01 0.02 0.02 0.01 0.01 0.01 0.02 0.01 0.01 0.01 0.01 0.01 0.01 0.00 0.00 0.00 0.00 0.00 0.00 0.00 0.01 0.02 0.02 0.02 0.03 0.02 0.02 0.02 0.02 0.01 0.01 0.02 0.02 0.02 0.01
0.00 0.00 0.00 0.00 0.00 0.00 0.01 0.01 0.01 0.01 0.01 0.02 0.01 0.01 0.01 0.01 0.01 0.02 0.01 0.01 0.00 0.00 0.00 0.00 0.00 0.00 0.00 0.00 0.01 0.01 0.01 0.01 0.02 0.03 0.02 0.02 0.02 0.01 0.01 0.01 0.01 0.01 0.01 0.01
0.00 0.00 0.00 0.00 0.00 0.00 0.00 0.01 0.01 0.01 0.01 0.02 0.02 0.01 0.01 0.01 0.01 0.01 0.01 0.01 0.00 0.00 0.00 0.00 0.00 0.00 0.00 0.00 0.00 0.01 0.01 0.01 0.02 0.02 0.02 0.02 0.02 0.01 0.01 0.01 0.01 0.00 0.00 0.00
0.00 0.00 0.00 0.00 0.01 0.01 0.01 0.01 0.02 0.01 0.01 0.01 0.01 0.01 0.01 0.01 0.01 0.01 0.01 0.01 0.01 0.00 0.00 0.00 0.00 0.00 0.00 0.00 0.00 0.01 0.01 0.02 0.02 0.01 0.02 0.03 0.03 0.01 0.01 0.01 0.01 0.00 0.00 0.00
0.01 0.01 0.01 0.01 0.01 0.01 0.01 0.01 0.01 0.01 0.01 0.01 0.01 0.01 0.01 0.01 0.01 0.01 0.01 0.01 0.01 0.01 0.01 0.00 0.00 0.00 0.00 0.01 0.01 0.00 0.01 0.01 0.02 0.01 0.01 0.02 0.02 0.02 0.01 0.01 0.01 0.01 0.00 0.00
0.01 0.01 0.01 0.01 0.00 0.00 0.01 0.01 0.01 0.01 0.01 0.01 0.01 0.01 0.01 0.01 0.01 0.02 0.02 0.02 0.01 0.01 0.01 0.01 0.02 0.01 0.01 0.01 0.02 0.02 0.01 0.01 0.02 0.03 0.02 0.01 0.01 0.01 0.01 0.01 0.01 0.01 0.01 0.00
0.01 0.01 0.01 0.01 0.01 0.01 0.01 0.01 0.01 0.02 0.02 0.01 0.01 0.01 0.01 0.01 0.01 0.02 0.03 0.03 0.02 0.01 0.01 0.02 0.03 0.04 0.03 0.03 0.03 0.03 0.02 0.01 0.02 0.03 0.02 0.00 0.00 0.01 0.01 0.02 0.01 0.01 0.02 0.01
0.01 0.01 0.01 0.01 0.01 0.01 0.01 0.01 0.01 0.01 0.01 0.02 0.01 0.02 0.02 0.02 0.02 0.01 0.01 0.03 0.02 0.01 0.02 0.03 0.03 0.05 0.04 0.04 0.05 0.04 0.04 0.03 0.02 0.02 0.01 0.01 0.01 0.01 0.01 0.01 0.02 0.02 0.02 0.01
0.00 0.01 0.01 0.01 0.01 0.01 0.01 0.02 0.02 0.02 0.02 0.02 0.01 0.02 0.02 0.02 0.01 0.01 0.01 0.01 0.01 0.01 0.02 0.04 0.03 0.04 0.05 0.04 0.05 0.05 0.04 0.04 0.03 0.02 0.01 0.02 0.03 0.03 0.02 0.02 0.02 0.02 0.01 0.01
0.00 0.01 0.01 0.01 0.01 0.01 0.01 0.01 0.01 0.02 0.02 0.01 0.01 0.02 0.02 0.03 0.02 0.01 0.01 0.00 0.00 0.00 0.01 0.01 0.01 0.02 0.04 0.05 0.05 0.05 0.04 0.05 0.05 0.03 0.02 0.03 0.04 0.04 0.03 0.02 0.02 0.01 0.01 0.01
0.01 0.01 0.01 0.01 0.01 0.00 0.01 0.01 0.01 0.01 0.02 0.01 0.01 0.02 0.02 0.02 0.02 0.02 0.01 0.01 0.01 0.00 0.00 0.00 0.01 0.01 0.01 0.02 0.03 0.03 0.04 0.05 0.05 0.04 0.04 0.03 0.03 0.02 0.03 0.02 0.02 0.01 0.01 0.01
0.01 0.01 0.00 0.01 0.01 0.00 0.01 0.01 0.01 0.01 0.01 0.01 0.02 0.02 0.02 0.01 0.01 0.02 0.02 0.01 0.01 0.01 0.00 0.00 0.00 0.01 0.01 0.01 0.01 0.01 0.02 0.03 0.03 0.04 0.04 0.03 0.02 0.02 0.02 0.02 0.02 0.03 0.02 0.02
0.01 0.01 0.01 0.01 0.02 0.02 0.02 0.02 0.01 0.01 0.01 0.01 0.01 0.01 0.02 0.01 0.01 0.01 0.02 0.01 0.01 0.00 0.00 0.00 0.00 0.00 0.01 0.01 0.01 0.01 0.01 0.01 0.01 0.02 0.02 0.02 0.02 0.02 0.02 0.02 0.02 0.02 0.03 0.04
0.01 0.02 0.03 0.04 0.04 0.03 0.02 0.02 0.01 0.01 0.01 0.01 0.01 0.02 0.02 0.01 0.01 0.01 0.01 0.01 0.01 0.01 0.00 0.00 0.00 0.00 0.00 0.01 0.01 0.01 0.01 0.01 0.01 0.01 0.01 0.01 0.01 0.01 0.01 0.02 0.02 0.02 0.02 0.03
0.02 0.04 0.05 0.04 0.03 0.02 0.01 0.02 0.01 0.01 0.01 0.01 0.01 0.01 0.02 0.02 0.02 0.01 0.01 0.01 0.01 0.01 0.00 0.00 0.00 0.00 0.00 0.01 0.01 0.01 0.01 0.01 0.01 0.01 0.00 0.00 0.00 0.00 0.01 0.01 0.01 0.01 0.01 0.01
0.02 0.03 0.04 0.02 0.02 0.01 0.01 0.01 0.01 0.00 0.01 0.00 0.00 0.01 0.02 0.02 0.02 0.02 0.01 0.01 0.00 0.01 0.01 0.00 0.00 0.00 0.00 0.01 0.01 0.01 0.01 0.01 0.01 0.01 0.01 0.01 0.00 0.00 0.00 0.00 0.00 0.01 0.01 0.01
0.01 0.02 0.03 0.02 0.01 0.01 0.01 0.01 0.00 0.00 0.01 0.00 0.00 0.01 0.01 0.01 0.02 0.02 0.01 0.01 0.01 0.01 0.02 0.01 0.01 0.00 0.00 0.01 0.01 0.01 0.01 0.01 0.01 0.00 0.00 0.00 0.00 0.00 0.00 0.00 0.00 0.01 0.01 0.01
0.01 0.01 0.01 0.01 0.01 0.01 0.00 0.00 0.00 0.01 0.01 0.00 0.00 0.00 0.00 0.00 0.01 0.01 0.01 0.01 0.01 0.02 0.01 0.02 0.02 0.01 0.00 0.00 0.01 0.01 0.01 0.01 0.01 0.00 0.00 0.00 0.00 0.00 0.00 0.01 0.01 0.01 0.01 0.01
0.01 0.01 0.01 0.01 0.01 0.01 0.00 0.00 0.01 0.01 0.00 0.00 0.00 0.00 0.00 0.00 0.00 0.00 0.00 0.01 0.01 0.01 0.01 0.01 0.01 0.01 0.01 0.00 0.00 0.01 0.01 0.01 0.01 0.01 0.01 0.00 0.00 0.00 0.00 0.00 0.00 0.00 0.01 0.01
0.01 0.01 0.01 0.01 0.01 0.01 0.00 0.00 0.00 0.00 0.00 0.00 0.00 0.00 0.00 0.01 0.00 0.00 0.00 0.00 0.00 0.00 0.00 0.00 0.01 0.01 0.01 0.01 0.01 0.01 0.01 0.00 0.01 0.01 0.00 0.00 0.00 0.00 0.00 0.00 0.00 0.00 0.00 0.01
0.00 0.00 0.01 0.02 0.02 0.01 0.00 0.00 0.00 0.00 0.00 0.00 0.00 0.00 0.00 0.01 0.01 0.00 0.00 0.00 0.00 0.00 0.00 0.00 0.00 0.00 0.00 0.00 0.00 0.00 0.00 0.00 0.00 0.00 0.00 0.00 0.00 0.00 0.00 0.00 0.00 0.01 0.01 0.01
0.00 0.00 0.00 0.01 0.01 0.01 0.01 0.00 0.00 0.00 0.00 0.00 0.00 0.01 0.01 0.01 0.01 0.00 0.01 0.01 0.00 0.00 0.00 0.00 0.01 0.01 0.00 0.00 0.00 0.00 0.00 0.00 0.00 0.00 0.00 0.00 0.00 0.00 0.00 0.01 0.01 0.01 0.01 0.02
0.00 0.00 0.01 0.01 0.00 0.00 0.01 0.01 0.00 0.00 0.00 0.00 0.00 0.00 0.01 0.01 0.02 0.01 0.01 0.01 0.01 0.01 0.01 0.01 0.01 0.01 0.01 0.01 0.01 0.01 0.00 0.00 0.00 0.00 0.00 0.00 0.00 0.00 0.00 0.01 0.01 0.01 0.01 0.01
MSLP
1013.30 1013.64 1013.85 1013.95 1013.96 1013.88 1013.74 1013.54 1013.29 1012.95 1012.52 1011.98 1011.34 1010.61 1009.83 1009.07 1008.37 1007.79 1007.36 1007.10 1007.00 1007.04 1007.16 1007.36 1007.59 1007.85 1008.15 1008.49 1008.90 1009.38 1009.92 1010.51 1011.10 1011.65 1012.13 1012.51 1012.77 1012.92 1013.01 1013.07 1013.15 1013.28 1013.49 1013.78
1013.47 1013.71 1013.84 1013.88 1013.84 1013.76 1013.65 1013.52 1013.34 1013.07 1012.70 1012.19 1011.54 1010.77 1009.92 1009.06 1008.27 1007.60 1007.11 1006.79 1006.66 1006.66 1006.78 1006.95 1007.15 1007.38 1007.63 1007.92 1008.28 1008.73 1009.28 1009.89 1010.54 1011.17 1011.75 1012.22 1012.58 1012.81 1012.95 1013.04 1013.13 1013.25 1013.44 1013.72
1013.59 1013.72 1013.75 1013.71 1013.64 1013.56 1013.49 1013.42 1013.32 1013.14 1012.84 1012.37 1011.73 1010.93 1010.03 1009.10 1008.23 1007.49 1006.92 1006.55 1006.38 1006.36 1006.45 1006.60 1006.76 1006.94 1007.12 1007.35 1007.65 1008.05 1008.57 1009.18 1009.87 1010.57 1011.23 1011.81 1012.27 1012.60 1012.81 1012.96 1013.07 1013.21 1013.41 1013.67
1013.69 1013.70 1013.62 1013.50 1013.38 1013.30 1013.26 1013.26 1013.25 1013.16 1012.93 1012.52 1011.90 1011.10 1010.17 1009.19 1008.26 1007.45 1006.83 1006.43 1006.22 1006.17 1006.24 1006.35 1006.47 1006.58 1006.69 1006.83 1007.05 1007.38 1007.84 1008.44 1009.13 1009.87 1010.60 1011.26 1011.81 1012.23 1012.53 1012.74 1012.91 1013.08 1013.30 1013.57
1013.81 1013.70 1013.51 1013.31 1013.14 1013.05 1013.04 1013.10 1013.16 1013.16 1013.00 1012.65 1012.07 1011.29 1010.35 1009.35 1008.38 1007.54 1006.88 1006.45 1006.21 1006.14 1006.17 1006.24 1006.31 1006.35 1006.37 1006.42 1006.54 1006.78 1007.16 1007.70 1008.36 1009.10 1009.87 1010.58 1011.20 1011.70 1012.08 1012.36 1012.59 1012.80 1013.04 1013.34
1014.01 1013.78 1013.50 1013.22 1013.00 1012.89 1012.90 1012.99 1013.11 1013.17 1013.09 1012.79 1012.26 1011.51 1010.58 1009.58 1008.61 1007.76 1007.09 1006.64 1006.39 1006.29 1006.29 1006.31 1006.31 1006.28 1006.21 1006.15 1006.15 1006.28 1006.56 1007.01 1007.62 1008.33 1009.09 1009.82 1010.48 1011.04 1011.47 1011.81 1012.08 1012.34 1012.61 1012.93
1014.33 1014.00 1013.63 1013.28 1013.01 1012.87 1012.88 1013.00 1013.15 1013.26 1013.22 1012.98 1012.50 1011.79 1010.90 1009.93 1008.98 1008.14 1007.48 1007.02 1006.75 1006.63 1006.59 1006.56 1006.49 1006.36 1006.20 1006.03 1005.91 1005.91 1006.08 1006.43 1006.95 1007.60 1008.32 1009.04 1009.71 1010.28 1010.74 1011.12 1011.43 1011.71 1012.02 1012.36
1014.77 1014.37 1013.93 1013.52 1013.21 1013.04 1013.03 1013.15 1013.32 1013.45 1013.45 1013.25 1012.82 1012.16 1011.32 1010.40 1009.49 1008.67 1008.02 1007.56 1007.28 1007.13 1007.04 1006.94 1006.80 1006.59 1006.32 1006.04 1005.81 1005.70 1005.75 1005.99 1006.42 1006.98 1007.64 1008.31 1008.95 1009.52 1009.98 1010.36 1010.69 1010.99 1011.31 1011.67
1015.32 1014.88 1014.40 1013.95 1013.60 1013.40 1013.36 1013.46 1013.63 1013.76 1013.79 1013.62 1013.23 1012.63 1011.86 1010.99 1010.12 1009.35 1008.71 1008.25 1007.94 1007.74 1007.60 1007.43 1007.21 1006.91 1006.55 1006.18 1005.85 1005.63 1005.58 1005.72 1006.04 1006.52 1007.10 1007.71 1008.30 1008.83 1009.28 1009.64 1009.96 1010.26 1010.57 1010.94
1015.94 1015.49 1014.98 1014.51 1014.13 1013.91 1013.85 1013.92 1014.07 1014.20 1014.23 1014.10 1013.75 1013.20 1012.49 1011.69 1010.87 1010.13 1009.50 1009.03 1008.68 1008.43 1008.22 1007.98 1007.67 1007.29 1006.85 1006.40 1006.00 1005.70 1005.57 1005.62 1005.86 1006.26 1006.76 1007.30 1007.83 1008.31 1008.71 1009.04 1009.32 1009.60 1009.89 1010.24
1016.58 1016.12 1015.62 1015.14 1014.76 1014.52 1014.44 1014.49 1014.62 1014.75 1014.78 1014.67 1014.37 1013.87 1013.22 1012.47 1011.70 1010.98 1010.36 1009.86 1009.46 1009.15 1008.85 1008.53 1008.16 1007.71 1007.21 1006.70 1006.25 1005.90 1005.71 1005.70 1005.88 1006.20 1006.63 1007.10 1007.57 1007.98 1008.32 1008.60 1008.84 1009.07 1009.32 1009.62
1017.16 1016.73 1016.25 1015.79 1015.41 1015.17 1015.08 1015.12 1015.24 1015.35 1015.40 1015.31 1015.04 1014.60 1014.00 1013.30 1012.57 1011.87 1011.24 1010.70 1010.25 1009.86 1009.49 1009.09 1008.65 1008.15 1007.61 1007.08 1006.59 1006.22 1006.00 1005.96 1006.08 1006.34 1006.70 1007.10 1007.49 1007.84 1008.11 1008.33 1008.51 1008.67 1008.87 1009.11
1017.66 1017.26 1016.81 1016.38 1016.04 1015.81 1015.72 1015.76 1015.87 1015.99 1016.04 1015.98 1015.75 1015.36 1014.81 1014.15 1013.45 1012.75 1012.10 1011.52 1011.02 1010.55 1010.11 1009.66 1009.16 1008.63 1008.07 1007.53 1007.04 1006.66 1006.43 1006.35 1006.42 1006.63 1006.91 1007.24 1007.55 1007.82 1008.02 1008.17 1008.28 1008.38 1008.50 1008.67
1018.06 1017.70 1017.30 1016.91 1016.59 1016.39 1016.32 1016.36 1016.48 1016.61 1016.68 1016.64 1016.45 1016.10 1015.60 1014.98 1014.29 1013.59 1012.92 1012.31 1011.75 1011.23 1010.73 1010.23 1009.71 1009.16 1008.61 1008.07 1007.60 1007.21 1006.96 1006.85 1006.87 1007.00 1007.21 1007.44 1007.67 1007.85 1007.98 1008.05 1008.09 1008.12 1008.16 1008.26
1018.38 1018.06 1017.69 1017.35 1017.08 1016.91 1016.86 1016.92 1017.05 1017.19 1017.28 1017.27 1017.11 1016.79 1016.31 1015.72 1015.05 1014.35 1013.66 1013.01 1012.41 1011.86 1011.33 1010.81 1010.29 1009.75 1009.22 1008.70 1008.24 1007.85 1007.57 1007.41 1007.36 1007.40 1007.51 1007.64 1007.76 1007.85 1007.89 1007.89 1007.86 1007.82 1007.81 1007.84
1018.65 1018.35 1018.03 1017.73 1017.50 1017.37 1017.35 1017.43 1017.57 1017.72 1017.82 1017.82 1017.67 1017.37 1016.91 1016.33 1015.66 1014.95 1014.25 1013.59 1012.97 1012.40 1011.88 1011.37 1010.87 1010.37 1009.87 1009.38 1008.93 1008.54 1008.22 1007.99 1007.85 1007.78 1007.77 1007.77 1007.78 1007.77 1007.72 1007.65 1007.56 1007.46 1007.39 1007.36
1018.88 1018.61 1018.33 1018.07 1017.88 1017.78 1017.78 1017.88 1018.02 1018.17 1018.27 1018.26 1018.11 1017.80 1017.34 1016.74 1016.07 1015.35 1014.64 1013.97 1013.36 1012.80 1012.30 1011.84 1011.39 1010.95 1010.50 1010.06 1009.62 1009.21 1008.85 1008.54 1008.29 1008.10 1007.95 1007.83 1007.71 1007.60 1007.47 1007.33 1007.18 1007.05 1006.93 1006.86
1019.11 1018.86 1018.61 1018.39 1018.23 1018.16 1018.18 1018.28 1018.42 1018.55 1018.62 1018.58 1018.39 1018.04 1017.54 1016.92 1016.21 1015.48 1014.76 1014.09 1013.49 1012.98 1012.53 1012.14 1011.78 1011.42 1011.04 1010.65 1010.24 1009.82 1009.41 1009.02 1008.66 1008.34 1008.06 1007.81 1007.58 1007.37 1007.16 1006.97 1006.78 1006.62 1006.48 1006.38
1019.34 1019.11 1018.89 1018.69 1018.57 1018.52 1018.55 1018.64 1018.76 1018.85 1018.87 1018.76 1018.50 1018.08 1017.52 1016.83 1016.08 1015.30 1014.56 1013.90 1013.33 1012.87 1012.50 1012.21 1011.94 1011.69 1011.41 1011.09 1010.72 1010.30 1009.86 1009.40 1008.95 1008.52 1008.13 1007.77 1007.44 1007.15 1006.90 1006.66 1006.45 1006.27 1006.11 1005.98
1019.56 1019.35 1019.15 1018.99 1018.89 1018.86 1018.90 1018.97 1019.05 1019.08 1019.02 1018.82 1018.46 1017.94 1017.27 1016.50 1015.67 1014.84 1014.08 1013.41 1012.88 1012.48 1012.20 1012.00 1011.86 1011.72 1011.55 1011.31 1011.01 1010.62 1010.17 1009.68 1009.17 1008.66 1008.19 1007.75 1007.37 1007.03 1006.74 1006.49 1006.27 1006.07 1005.90 1005.74
1019.76 1019.57 1019.40 1019.27 1019.20 1019.18 1019.22 1019.27 1019.30 1019.25 1019.09 1018.78 1018.30 1017.65 1016.86 1015.98 1015.06 1014.17 1013.36 1012.69 1012.18 1011.84 1011.65 1011.56 1011.53 1011.52 1011.46 1011.33 1011.10 1010.77 1010.34 1009.85 1009.32 1008.79 1008.28 1007.81 1007.40 1007.06 1006.76 1006.52 1006.30 1006.10 1005.90 1005.71
1019.92 1019.76 1019.62 1019.52 1019.48 1019.48 1019.51 1019.53 1019.50 1019.38 1019.11 1018.68 1018.06 1017.28 1016.36 1015.36 1014.34 1013.38 1012.54 1011.86 1011.37 1011.07 1010.95 1010.96 1011.04 1011.14 1011.20 1011.17 1011.03 1010.77 1010.40 1009.94 1009.44 1008.92 1008.42 1007.97 1007.58 1007.25 1006.99 1006.76 1006.55 1006.35 1006.14 1005.91
1020.04 1019.90 1019.80 1019.74 1019.73 1019.75 1019.77 1019.77 1019.68 1019.47 1019.10 1018.55 1017.81 1016.90 1015.86 1014.76 1013.65 1012.63 1011.75 1011.05 1010.58 1010.32 1010.26 1010.34 1010.51 1010.70 1010.85 1010.91 1010.86 1010.68 1010.38 1009.98 1009.53 1009.07 1008.62 1008.22 1007.88 1007.61 1007.39 1007.20 1007.02 1006.82 1006.60 1006.33
1020.11 1020.00 1019.94 1019.92 1019.94 1019.98 1020.00 1019.96 1019.83 1019.54 1019.08 1018.43 1017.59 1016.58 1015.45 1014.27 1013.11 1012.05 1011.14 1010.45 1009.98 1009.75 1009.72 1009.85 1010.07 1010.31 1010.53 1010.66 1010.67 1010.56 1010.32 1010.00 1009.63 1009.24 1008.86 1008.54 1008.28 1008.07 1007.91 1007.77 1007.63 1007.45 1007.21 1006.91
1020.16 1020.08 1020.05 1020.07 1020.11 1020.16 1020.17 1020.11 1019.92 1019.58 1019.05 1018.33 1017.42 1016.36 1015.19 1013.98 1012.81 1011.74 1010.84 1010.16 1009.71 1009.49 1009.47 1009.61 1009.85 1010.11 1010.34 1010.49 1010.54 1010.47 1010.29 1010.03 1009.73 1009.42 1009.13 1008.89 1008.71 1008.59 1008.50 1008.42 1008.32 1008.16 1007.93 1007.61
1020.19 1020.14 1020.14 1020.18 1020.24 1020.29 1020.28 1020.18 1019.96 1019.57 1018.99 1018.24 1017.31 1016.24 1015.09 1013.91 1012.77 1011.75 1010.90 1010.25 1009.82 1009.61 1009.59 1009.71 1009.92 1010.16 1010.36 1010.50 1010.54 1010.48 1010.32 1010.11 1009.86 1009.61 1009.40 1009.24 1009.15 1009.10 1009.08 1009.07 1009.01 1008.89 1008.68 1008.37
Thickness
5734 5727 5721 5725 5727 5725 5721 5716 5715 5720 5726 5721 5720 5722 5727 5729 5727 5725 5726 5727 5726 5726 5728 5727 5726 5724 5723 5720 5718 5716 5714 5712 5709 5707 5704 5702 5700 5699 5697 5696 5694 5692 5692 5691
5725 5721 5729 5730 5726 5721 5718 5713 5714 5719 5723 5719 5719 5720 5727 5728 5726 5726 5726 5726 5727 5725 5725 5723 5723 5721 5720 5718 5716 5714 5712 5710 5707 5704 5702 5700 5697 5696 5694 5691 5690 5689 5687 5686
5718 5725 5729 5723 5718 5714 5715 5713 5714 5713 5716 5720 5716 5719 5725 5730 5729 5726 5725 5726 5727 5725 5723 5722 5720 5719 5717 5715 5713 5712 5710 5707 5704 5701 5699 5696 5693 5691 5689 5687 5685 5684 5683 5681
5720 5726 5722 5718 5716 5716 5710 5720 5716 5711 5708 5710 5711 5705 5722 5727 5723 5723 5722 5723 5724 5724 5723 5721 5718 5716 5714 5713 5711 5710 5707 5705 5701 5698 5695 5693 5689 5686 5685 5684 5681 5680 5678 5676
5717 5720 5717 5714 5718 5718 5716 5719 5714 5711 5708 5706 5710 5703 5718 5724 5718 5722 5723 5722 5722 5722 5721 5719 5717 5715 5713 5710 5707 5706 5704 5701 5698 5696 5692 5689 5687 5685 5683 5680 5678 5676 5674 5672
5718 5723 5720 5719 5721 5720 5717 5713 5710 5709 5707 5695 5707 5702 5706 5719 5719 5722 5723 5722 5722 5721 5720 5718 5716 5713 5710 5707 5703 5701 5699 5696 5694 5691 5689 5686 5683 5680 5678 5675 5674 5672 5670 5667
5707 5714 5718 5719 5711 5712 5712 5703 5694 5692 5692 5695 5706 5698 5704 5720 5721 5720 5719 5721 5721 5720 5718 5715 5712 5708 5705 5701 5699 5697 5695 5692 5690 5688 5685 5684 5681 5678 5675 5673 5670 5668 5666 5663
5695 5697 5710 5713 5710 5707 5708 5705 5689 5680 5685 5695 5699 5694 5709 5718 5716 5717 5717 5717 5716 5715 5714 5711 5708 5705 5702 5699 5696 5694 5691 5689 5686 5684 5682 5681 5678 5674 5672 5669 5667 5665 5662 5661
5694 5696 5709 5710 5713 5710 5703 5702 5707 5695 5690 5684 5694 5702 5710 5714 5711 5710 5711 5711 5710 5710 5709 5707 5704 5701 5699 5696 5693 5691 5689 5686 5683 5681 5679 5677 5674 5671 5669 5666 5664 5661 5659 5657
5698 5689 5700 5704 5705 5704 5707 5705 5696 5687 5676 5675 5685 5691 5697 5704 5704 5705 5706 5705 5705 5705 5704 5702 5699 5696 5695 5692 5689 5687 5685 5682 5680 5677 5675 5672 5670 5668 5665 5663 5660 5658 5655 5653
5695 5687 5690 5695 5693 5695 5694 5694 5694 5690 5687 5676 5674 5687 5704 5701 5701 5702 5703 5703 5702 5700 5698 5696 5694 5692 5690 5687 5685 5683 5680 5678 5676 5673 5671 5668 5665 5663 5660 5658 5655 5653 5651 5648
5690 5687 5684 5691 5698 5699 5697 5696 5693 5680 5681 5682 5677 5684 5705 5701 5700 5699 5700 5700 5698 5696 5694 5691 5689 5687 5684 5682 5681 5679 5676 5674 5671 5669 5666 5663 5661 5658 5656 5653 5651 5649 5647 5645
5682 5679 5672 5678 5683 5687 5687 5690 5690 5689 5684 5680 5673 5681 5699 5697 5695 5695 5694 5694 5693 5690 5688 5686 5683 5681 5679 5677 5675 5674 5672 5669 5666 5663 5661 5658 5656 5653 5651 5649 5647 5645 5642 5640
5679 5677 5672 5668 5677 5682 5681 5682 5683 5682 5676 5677 5680 5683 5690 5689 5689 5689 5689 5689 5687 5685 5682 5680 5677 5676 5674 5672 5670 5668 5666 5664 5662 5658 5656 5653 5651 5649 5646 5644 5641 5639 5637 5635
5674 5671 5674 5675 5678 5677 5676 5677 5678 5677 5680 5678 5682 5682 5685 5687 5686 5686 5684 5681 5679 5678 5676 5674 5672 5671 5669 5667 5665 5663 5661 5659 5656 5653 5650 5648 5646 5643 5641 5638 5636 5634 5631 5630
5666 5664 5667 5666 5670 5671 5669 5673 5674 5672 5675 5675 5675 5676 5684 5684 5683 5680 5678 5674 5672 5671 5670 5669 5668 5666 5664 5663 5661 5658 5656 5653 5651 5648 5645 5642 5640 5637 5635 5633 5630 5628 5626 5624
5658 5658 5656 5659 5664 5664 5663 5673 5672 5671 5674 5674 5670 5675 5677 5674 5673 5672 5672 5669 5667 5666 5665 5664 5663 5662 5660 5659 5657 5653 5651 5648 5646 5643 5641 5638 5634 5632 5630 5628 5625 5622 5620 5618
5652 5650 5651 5652 5653 5646 5670 5677 5674 5671 5671 5673 5672 5671 5670 5668 5667 5667 5667 5665 5663 5662 5660 5659 5658 5657 5655 5654 5651 5649 5646 5643 5641 5638 5635 5632 5629 5626 5624 5622 5619 5617 5615 5613
5648 5645 5643 5644 5645 5655 5664 5666 5665 5663 5663 5669 5666 5665 5663 5663 5662 5662 5661 5659 5658 5656 5655 5653 5652 5651 5650 5647 5645 5642 5640 5638 5635 5632 5629 5627 5624 5621 5618 5615 5613 5611 5608 5607
5640 5641 5639 5637 5635 5641 5658 5662 5664 5660 5655 5663 5661 5659 5657 5656 5655 5657 5654 5652 5650 5648 5647 5646 5645 5644 5642 5640 5638 5636 5634 5631 5628 5625 5623 5621 5618 5615 5612 5609 5606 5604 5602 5600
5630 5631 5631 5632 5633 5645 5654 5654 5654 5646 5653 5656 5655 5653 5651 5649 5650 5649 5647 5644 5642 5640 5638 5638 5637 5635 5633 5632 5630 5628 5627 5624 5622 5619 5616 5613 5610 5607 5604 5601 5599 5596 5595 5593
5632 5630 5629 5630 5628 5636 5646 5646 5645 5649 5652 5650 5648 5647 5645 5643 5641 5639 5638 5636 5634 5632 5630 5629 5628 5626 5624 5623 5622 5621 5619 5616 5613 5610 5608 5605 5602 5599 5596 5593 5590 5589 5587 5585
5627 5630 5632 5632 5635 5639 5640 5641 5643 5644 5642 5641 5640 5639 5636 5633 5632 5631 5630 5629 5627 5625 5623 5621 5620 5618 5616 5615 5614 5613 5610 5607 5605 5602 5600 5597 5594 5590 5588 5585 5582 5580 5578 5577
5622 5622 5624 5627 5632 5633 5633 5634 5633 5634 5632 5632 5631 5629 5627 5625 5624 5623 5622 5620 5619 5618 5615 5614 5612 5611 5609 5607 5605 5604 5602 5599 5597 5595 5591 5588 5585 5582 5579 5576 5574 5571 5569 5568
5615 5614 5616 5620 5625 5625 5625 5625 5625 5624 5624 5623 5622 5621 5619 5617 5616 5615 5614 5612 5611 5609 5607 5605 5603 5601 5600 5598 5596 5595 5593 5591 5589 5587 5583 5579 5576 5573 5570 5568 5565 5563 5561 5558
5610 5610 5611 5616 5621 5620 5621 5619 5617 5615 5614 5613 5612 5611 5611 5609 5607 5606 5605 5604 5602 5601 5599 5596 5594 5591 5590 5589 5587 5586 5584 5583 5581 5578 5574 5570 5567 5564 5561 5559 5556 5551 5549 5546